Airfield :
LOGIN :

Register | Disclaimer

   EN    FR    IT 

 










Legend :    VFR   Marginal VFR   IFR   Intensive IFR   Very Intensive IFR
Visi :
Ceiling :
>= 8 km
>= 3000ft
5 to 8 km
1000 to 3000 ft
1500m to 5 km
500 to 1000 ft
800 to 1500m
200 to 500 ft
< 800m
< 200 ft
Symbols :   Thunderstorms  Fog  Heavy snow  Heavy precipitations  Wind > 20 kt
SIGMETs :     Misc.  Thunderstorms  Icing  Turbulence  Mountain Waves  Volcanic Ashes






- Airport Elevation : 52 ft
- IATA code : RNN


EKRN - Bornholm Ronne

CURRENT METAR :
  • 311720Z AUTO 22015KT 190V250 9999 OVC056/// 19/14 Q1001

EXPIRED METARs :
  • 311650Z AUTO 22016KT 9999 FEW063/// BKN096/// BKN120/// 20/13 Q1001
  • 311620Z AUTO 22011KT 9999 FEW065/// 20/14 Q1001
  • 311520Z AUTO 22013KT 190V250 9999 SCT082/// 20/13 Q1002

Expired Forecast.



MET'MAP, your aeronautical weather chart ! - Copyright ORBIFLY December 2007 - Disclaimer

ORBIFLY MET'MAP TEAM :

Programming & Development : Alexandra Zaïnal
Concept & original design : Baudouin d'Aumeries
Assistance for programming : Marc-Olivier Méhu
Technical & hardware support : Manuel Goepfert

Contact : metmap@orbifly.com




SOURCES & CREDITS :

   NOAA